UWKDUWKS

Guest
Details From UWKD - KAZAN
To UWKS - CHEBOKSARY
Flight Number -
Tags generated
Created
Modified
Stats Distance 71 nm / 132 km
Max Altitude 0 ft / 0 m
Waypoints 2
Social Downloads 5
Likes 0
Share VATSIM

Download

Looking for another format? Having issues loading an existing format? Contact us
Advertisement - Login to hide

Notes

Basic altitude profile: - Ascent Rate: 2500ft/min - Ascent Speed: 250kts - Cruise Altitude: 35000ft - Cruise Speed: 420kts - Descent Rate: 1500ft/min - Descent Speed: 250kts Options: - Use NATs: yes - Use PACOTS: yes - Use low airways: yes - Use high airways: yes

Route

UWKD UWKS

ID Type Via Altitude Latitude Longitude Leg Dist Tot Dist Heading (true) Name
O UWKD APT - 0 ft / 0 m 55.60654˚ 49.27969˚ - 0 nm - KAZAN
O UWKS APT - 0 ft / 0 m 56.09027˚ 47.34725˚ 71 nm 71 nm 295° / 293° CHEBOKSARY

Altitude Profile

Advertisement - Login to hide

UWKD

Details ICAO UWKD (KZN)
Name KAZAN
Region Russia
Timezone Europe/Moscow (UTC+3.0)
Stats Elevation 411 ft / 125 m (AMSL)
Location 55.606544° 49.279689°
Runways 2
Magnetic Variation 13.333° E

METAR

UWKD 201230Z 32005G10MPS 9999 OVC015 14/10 Q1014 R29/CLRD70 NOSIG RMK QFE749/0999

Decode

TAF

TAF UWKD 201055Z 2012/2112 32007G12MPS 9999 BKN015 TX22/2110Z TN08/2103Z TEMPO 2012/2015 30012MPS 3100 -SHRA BKN006 BKN013CB BECMG 2023/2101 02006MPS

Decode

Departure Runways

ID Width Length Bearing (true) Bearing (mag) Surface Threshold Offset Overrun Length
11L 144 ft / 44 m 12,189 ft / 3,715 m 126.46° 113.13° Concrete 837 ft / 255 m 0 ft / 0 m
11R 148 ft / 45 m 8,174 ft / 2,492 m 124.48° 111.15° Concrete 0 ft / 0 m 180 ft / 55 m
29L 148 ft / 45 m 8,174 ft / 2,492 m 304.51° 291.18° Concrete 0 ft / 0 m 180 ft / 55 m
29R 144 ft / 44 m 12,189 ft / 3,715 m 306.50° 293.17° Concrete 0 ft / 0 m 160 ft / 49 m

UWKS

Details ICAO UWKS (CSY)
Name CHEBOKSARY
Region Russia
Timezone Europe/Moscow (UTC+3.0)
Stats Elevation 560 ft / 171 m (AMSL)
Location 56.090269° 47.347251°
Runways 1
Magnetic Variation 13.338° E

METAR

UWKS 201230Z 35004MPS 310V020 9999 BKN020CB 12/09 Q1016 R06/010060 NOSIG RMK QFE747

Decode

TAF

Not found

Destination Runways

ID Width Length Bearing (true) Bearing (mag) Surface Threshold Offset Overrun Length
06 161 ft / 49 m 8,220 ft / 2,505 m 71.95° 58.61° Asphalt 0 ft / 0 m 165 ft / 50 m
24 161 ft / 49 m 8,220 ft / 2,505 m 251.98° 238.64° Asphalt 0 ft / 0 m 175 ft / 53 m

Approach Navaids

Runway Type Ident Frequency Range Bearing (true) Bearing (mag) Slope Elevation
06 Localiser ILA 110.30 MHz 18 nm / 33 km 71.94° 58.60° - 560 ft / 171 m (AMSL)
06 Glidescope ILA 110.30 MHz 10 nm / 19 km 71.96° 58.62° 3.00° 560 ft / 171 m (AMSL)
24 Localiser ICR 108.30 MHz 18 nm / 33 km 251.80° 238.46° - 560 ft / 171 m (AMSL)
24 Glidescope ICR 108.30 MHz 10 nm / 19 km 251.96° 238.62° 2.70° 560 ft / 171 m (AMSL)

Popular Alternatives